TimePDT,TemperatureF,Dew PointF,Humidity,Sea Level PressureIn,VisibilityMPH,Wind Direction,Wind SpeedMPH,Gust SpeedMPH,PrecipitationIn,Events,Conditions,WindDirDegrees,DateUTC
12:15 AM,59.0,57.2,94,30.07,9.0,Calm,Calm,-,N/A,,Overcast,0,2013-09-05 07:15:00
12:35 AM,59.0,57.2,94,30.06,9.0,Calm,Calm,-,N/A,,Overcast,0,2013-09-05 07:35:00
12:55 AM,59.0,57.2,94,30.07,10.0,ENE,3.5,-,N/A,,Overcast,60,2013-09-05 07:55:00
1:15 AM,59.0,57.2,94,30.06,10.0,Calm,Calm,-,N/A,,Overcast,0,2013-09-05 08:15:00
1:35 AM,59.0,57.2,94,30.06,9.0,Calm,Calm,-,N/A,,Overcast,0,2013-09-05 08:35:00
1:55 AM,59.0,57.2,94,30.05,10.0,Calm,Calm,-,N/A,,Overcast,0,2013-09-05 08:55:00
2:15 AM,60.8,60.8,100,30.05,10.0,Calm,Calm,-,N/A,,Overcast,0,2013-09-05 09:15:00
2:35 AM,60.8,60.8,100,30.04,10.0,Calm,Calm,-,N/A,,Overcast,0,2013-09-05 09:35:00
2:55 AM,59.0,59.0,100,30.04,5.0,Calm,Calm,-,N/A,,Overcast,0,2013-09-05 09:55:00
3:15 AM,59.0,59.0,100,30.04,5.0,Calm,Calm,-,N/A,,Overcast,0,2013-09-05 10:15:00
3:35 AM,59.0,59.0,100,30.03,2.5,Calm,Calm,-,N/A,,Overcast,0,2013-09-05 10:35:00
3:55 AM,59.0,57.2,94,30.03,5.0,Calm,Calm,-,N/A,,Overcast,0,2013-09-05 10:55:00
4:15 AM,59.0,57.2,94,30.03,8.0,Calm,Calm,-,N/A,,Overcast,0,2013-09-05 11:15:00
4:35 AM,59.0,59.0,100,30.04,4.0,Calm,Calm,-,N/A,,Overcast,0,2013-09-05 11:35:00
4:55 AM,59.0,57.2,94,30.03,2.5,Calm,Calm,-,N/A,,Overcast,0,2013-09-05 11:55:00
5:15 AM,59.0,57.2,94,30.04,8.0,North,3.5,-,N/A,,Overcast,360,2013-09-05 12:15:00
5:35 AM,59.0,57.2,94,30.03,10.0,North,3.5,-,N/A,,Overcast,350,2013-09-05 12:35:00
5:55 AM,59.0,59.0,100,30.04,10.0,North,3.5,-,N/A,,Overcast,360,2013-09-05 12:55:00
6:15 AM,59.0,57.2,94,30.04,2.5,NNW,3.5,-,N/A,,Overcast,340,2013-09-05 13:15:00
6:35 AM,59.0,59.0,100,30.05,7.0,North,3.5,-,N/A,,Overcast,360,2013-09-05 13:35:00
6:55 AM,60.8,60.8,100,30.05,5.0,NNW,4.6,-,N/A,,Overcast,330,2013-09-05 13:55:00
7:15 AM,59.0,57.2,94,30.05,5.0,Calm,Calm,-,N/A,,Overcast,0,2013-09-05 14:15:00
7:35 AM,60.8,60.8,100,30.05,5.0,WNW,3.5,-,N/A,,Overcast,300,2013-09-05 14:35:00
7:55 AM,60.8,60.8,100,30.05,5.0,Calm,Calm,-,N/A,,Overcast,0,2013-09-05 14:55:00
8:15 AM,60.8,60.8,100,30.05,7.0,North,3.5,-,0.06,Thunderstorm,Thunderstorm,350,2013-09-05 15:15:00
8:35 AM,60.8,60.8,100,30.06,10.0,Calm,Calm,-,0.14,,Overcast,0,2013-09-05 15:35:00
8:55 AM,60.8,60.8,100,30.06,10.0,Calm,Calm,-,0.14,,Overcast,0,2013-09-05 15:55:00
9:15 AM,60.8,60.8,100,30.06,10.0,NNW,4.6,-,0.03,Thunderstorm,Overcast,340,2013-09-05 16:15:00
9:35 AM,60.8,60.8,100,30.06,10.0,North,5.8,-,0.05,Thunderstorm,Thunderstorm,360,2013-09-05 16:35:00
9:55 AM,60.8,60.8,100,30.07,8.0,WNW,4.6,-,0.08,Thunderstorm,Overcast,300,2013-09-05 16:55:00
10:15 AM,60.8,60.8,100,30.07,7.0,NW,6.9,-,0.06,Thunderstorm,Overcast,310,2013-09-05 17:15:00
10:35 AM,60.8,60.8,100,30.07,10.0,NW,5.8,-,0.08,Thunderstorm,Overcast,320,2013-09-05 17:35:00
10:55 AM,60.8,60.8,100,30.07,10.0,WNW,8.1,-,0.09,Thunderstorm,Overcast,290,2013-09-05 17:55:00
11:15 AM,60.8,60.8,100,30.07,10.0,NNW,4.6,-,0.02,Thunderstorm,Overcast,330,2013-09-05 18:15:00
11:35 AM,60.8,60.8,100,30.08,10.0,Calm,Calm,-,0.03,Thunderstorm,Overcast,0,2013-09-05 18:35:00
11:55 AM,60.8,60.8,100,30.08,9.0,NNW,3.5,-,0.06,,Overcast,340,2013-09-05 18:55:00
12:15 PM,60.8,60.8,100,30.08,10.0,WSW,3.5,-,0.04,,Overcast,250,2013-09-05 19:15:00
12:35 PM,60.8,60.8,100,30.09,10.0,West,4.6,-,0.06,,Overcast,270,2013-09-05 19:35:00
12:55 PM,60.8,60.8,100,30.09,10.0,West,3.5,-,0.06,,Overcast,260,2013-09-05 19:55:00
1:15 PM,60.8,60.8,100,30.09,10.0,Calm,Calm,-,N/A,,Overcast,0,2013-09-05 20:15:00
1:35 PM,60.8,59.0,94,30.10,10.0,West,5.8,-,0.01,,Overcast,260,2013-09-05 20:35:00
1:55 PM,60.8,59.0,94,30.10,10.0,West,5.8,-,0.01,,Overcast,260,2013-09-05 20:55:00
2:15 PM,60.8,59.0,94,30.10,10.0,West,8.1,-,N/A,,Mostly Cloudy,280,2013-09-05 21:15:00
2:35 PM,60.8,59.0,94,30.10,10.0,West,8.1,-,N/A,,Overcast,280,2013-09-05 21:35:00
2:55 PM,60.8,60.8,100,30.11,9.0,WNW,5.8,-,N/A,,Overcast,290,2013-09-05 21:55:00
3:15 PM,60.8,60.8,100,30.11,7.0,North,-9999.0,-,N/A,,Overcast,0,2013-09-05 22:15:00
3:35 PM,62.6,62.6,100,30.10,10.0,SW,3.5,-,N/A,,Overcast,220,2013-09-05 22:35:00
3:55 PM,64.4,62.6,94,30.10,10.0,West,5.8,-,N/A,,Overcast,260,2013-09-05 22:55:00
4:15 PM,62.6,60.8,94,30.10,10.0,WSW,4.6,-,N/A,,Overcast,240,2013-09-05 23:15:00
4:35 PM,64.4,62.6,94,30.09,10.0,West,8.1,-,N/A,,Mostly Cloudy,260,2013-09-05 23:35:00
4:55 PM,64.4,62.6,94,30.09,10.0,West,8.1,-,N/A,,Mostly Cloudy,260,2013-09-05 23:55:00
5:15 PM,64.4,62.6,94,30.10,10.0,West,6.9,-,N/A,,Overcast,260,2013-09-06 00:15:00
5:35 PM,64.4,60.8,88,30.11,10.0,West,6.9,-,N/A,,Overcast,270,2013-09-06 00:35:00
5:55 PM,64.4,60.8,88,30.11,10.0,West,5.8,-,N/A,,Overcast,270,2013-09-06 00:55:00
6:15 PM,64.4,60.8,88,30.10,10.0,WSW,6.9,-,N/A,,Mostly Cloudy,250,2013-09-06 01:15:00
6:35 PM,62.6,60.8,94,30.11,10.0,WSW,5.8,-,N/A,,Mostly Cloudy,240,2013-09-06 01:35:00
6:55 PM,62.6,60.8,94,30.11,10.0,WSW,5.8,-,N/A,,Overcast,240,2013-09-06 01:55:00
7:15 PM,62.6,60.8,94,30.11,10.0,WSW,5.8,-,N/A,,Overcast,240,2013-09-06 02:15:00
7:35 PM,62.6,60.8,94,30.11,10.0,WSW,8.1,-,N/A,,Overcast,240,2013-09-06 02:35:00
7:55 PM,62.6,62.6,100,30.11,7.0,WSW,6.9,-,N/A,,Overcast,240,2013-09-06 02:55:00
8:15 PM,62.6,62.6,100,30.11,10.0,SW,4.6,-,0.01,,Overcast,220,2013-09-06 03:15:00
8:35 PM,62.6,62.6,100,30.12,10.0,South,3.5,-,0.01,,Overcast,180,2013-09-06 03:35:00
8:55 PM,62.6,62.6,100,30.13,10.0,SSE,3.5,-,0.01,,Overcast,150,2013-09-06 03:55:00
9:15 PM,62.6,62.6,100,30.13,10.0,SSE,4.6,-,N/A,,Overcast,150,2013-09-06 04:15:00
9:35 PM,62.6,60.8,94,30.14,10.0,SSE,4.6,-,N/A,,Overcast,160,2013-09-06 04:35:00
9:55 PM,62.6,60.8,94,30.14,10.0,SSE,3.5,-,N/A,,Overcast,160,2013-09-06 04:55:00
10:15 PM,62.6,60.8,94,30.14,10.0,Calm,Calm,-,N/A,,Overcast,0,2013-09-06 05:15:00
10:35 PM,60.8,60.8,100,30.14,10.0,SSE,3.5,-,N/A,,Overcast,150,2013-09-06 05:35:00
10:55 PM,60.8,60.8,100,30.15,10.0,Calm,Calm,-,N/A,,Overcast,0,2013-09-06 05:55:00
11:15 PM,62.6,60.8,94,30.15,10.0,Calm,Calm,-,N/A,,Overcast,0,2013-09-06 06:15:00
11:35 PM,60.8,60.8,100,30.16,10.0,Calm,Calm,-,N/A,,Overcast,0,2013-09-06 06:35:00
11:55 PM,60.8,60.8,100,30.16,6.0,Calm,Calm,-,N/A,,Overcast,0,2013-09-06 06:55:00